Location: Bu�n Treun
(12.1333°N, 108.3167°E)
Time: 13:13:25
(UTC+00:00)

Ariane Rocket - Pass Details

Date: 13 July 2020
Orbit: 759 x 771 km, 98.7° (Epoch: 07 August)

Event Time Altitude Azimuth Distance (km) Brightness Sun altitude
Exits shadow 12:51:34 35° 170° (S) 1,218 3.7 -21.9°
Maximum altitude 12:53:45 87° 255° (WSW) 774 2.9 -22.4°
Drops below altitude 10° 12:58:51 10° 347° (NNW) 2,305 6.0 -23.4°
Sets 13:01:09 0° 347° (NNW) 3,230 6.9 -23.9°
